Regional Weather Roundup
Issued by NWS Wilmington, NC

Home | Current Version | Previous Version | Text Only | Print | Product List | Glossary On
Versions: 1 2 3 4 5 6 7 8 9 10 11 12 13 14 15 16 17 18 19 20 21 22 23 24 25 26 27 28 29 30 31 32 33 34 35 36 37 38 39 40 41 42 43 44 45 46 47 48 49 50
000
ASUS42 KILM 210212
RWRILM
RWRILM
REGIONAL HOURLY WEATHER ROUNDUP
NATIONAL WEATHER SERVICE WILMINGTON NC
900 PM EST FRI JAN 20 2017

NOTE: "FAIR" INDICATES FEW OR NO CLOUDS BELOW 12,000 FEET WITH NO
SIGNIFICANT WEATHER AND/OR OBSTRUCTIONS TO VISIBILITY.

...............WFO WILMINGTON COUNTY WARNING AREA...............

......COASTAL NC AND SC COUNTIES......

CITY           SKY/WX    TMP DP  RH WIND       PRES   REMARKS
WILMINGTON     CLEAR     59  59 100 CALM      29.89R
N MYRTLE BEACH MOCLDY    54  54 100 CALM      29.90R FOG
MYRTLE BEACH   CLEAR     59  54  82 S7        29.92R

......INLAND NC AND SC COUNTIES.......

CITY           SKY/WX    TMP DP  RH WIND       PRES   REMARKS
LUMBERTON      FOG       55  55 100 CALM      29.89R VSB 1
ELIZABETHTOWN  PTCLDY    56  56  99 CALM      29.90R
WHITEVILLE     CLEAR     59  58  95 CALM      29.89R
FLORENCE       PTCLDY    60  58  92 S5        29.89R
DARLINGTON     MOCLDY    58  58 100 SE3       29.89R
KINGSTREE      FAIR      61  55  82 CALM      29.90R
HARTSVILLE     MOCLDY    59  55  88 E3        29.88R
BENNETTSVILLE  FAIR      55  55 100 CALM      29.88S
CONWAY         FAIR      55  54  94 CALM      29.90R FOG
GEORGETOWN     FAIR      59  59 100 CALM      29.92R
MARION         FAIR      55  54  94 CALM      29.89S

....................REST OF NORTH CAROLINA......................

.........EASTERN NC.........

CITY           SKY/WX    TMP DP  RH WIND       PRES   REMARKS
CAPE HATTERAS  CLOUDY    52  49  89 N6        29.88R FOG
JACKSONVILLE   CLEAR     52  52 100 N3        29.90R
MOREHEAD CITY  PTCLDY    57  56  96 CALM      29.88R FOG
KENANSVILLE    PTCLDY    52  52 100 CALM      29.90R FOG
NEW BERN       MOCLDY    54  53  97 N5        29.90R
ELIZABETH CITY CLOUDY    48  47  96 CALM      29.91S

.........CENTRAL NC.........

CITY           SKY/WX    TMP DP  RH WIND       PRES   REMARKS
RALEIGH DURHAM FOG       50  49  96 CALM      29.92R VSB 1/2
ROCKY MOUNT    CLOUDY    51  51 100 N6        29.91R FOG
ROANOKE RAPIDS NOT AVBL
FAYETTEVILLE   CLEAR     58  57  97 N6        29.90R
HOFFMAN        FOG       52  50  93 CALM      29.89S VSB 3/8

.........WESTERN NC.........

CITY           SKY/WX    TMP DP  RH WIND       PRES   REMARKS
CHARLOTTE      CLOUDY    55  52  89 NE5       29.89R
GREENSBORO     CLOUDY    53  53 100 CALM      29.90R FOG
HICKORY        NOT AVBL
BOONE          NOT AVBL
ASHEVILLE      NOT AVBL

.....................REST OF SOUTH CAROLINA.....................

.........EASTERN SC.........

CITY           SKY/WX    TMP DP  RH WIND       PRES   REMARKS
CHARLESTON     CLEAR     61  59  93 S3        29.92R
BEAUFORT MCAS  PTCLDY    62  60  93 SE3       29.92R
HILTON HEAD    PTCLDY    63  63 100 CALM      29.93R

.........CENTRAL SC.........

CITY           SKY/WX    TMP DP  RH WIND       PRES   REMARKS
COLUMBIA       PTCLDY    62  56  80 CALM      29.87R
ORANGEBURG     PTCLDY    61  58  90 S7        29.90R
SUMTER SHAW    CLEAR     62  56  82 S5        29.87R

.........WESTERN SC.........

CITY           SKY/WX    TMP DP  RH WIND       PRES   REMARKS
GREENVILLE     NOT AVBL
ROCK HILL      CLOUDY    53  52  96 CALM      29.89R FOG
ANDERSON       CLEAR     57  51  80 CALM      29.86R
CLEMSON        NOT AVBL
GREENWOOD      CLEAR     62  50  64 S5        29.88R


...................COASTAL AND OFFSHORE REPORTS..................

................LOCAL PIERS AND NC RESERVE................


STATION/POSITION TIME  SKY/WX   TEMP    WIND        PRES    VSBY
                                AIR SEA DIR/SP/G
                 (UTC)          (F)     (DEG/KT/KT) (MB)    (MI)
JOHNY MRCER PIER 0136            61 55  290/  3/  4 1010.9R
NC RESRV MASNBRO 0045            62     290/  2     1011.0
OCEAN CREST PIER NOT AVBL
SPRINGMAID  PIER NOT AVBL


................COASTAL AND OFFSHORE BUOYS................


STATION/POSITION TIME  SKY/WX   TEMP    WIND        PRES    VSBY
                                AIR SEA DIR/SP/G
                 (UTC)          (F)     (DEG/KT/KT) (MB)    (MI)
DIMNDSHOAL 41025 0050            67 76  290/ 12/ 16 1010.7
WVE H/P(F/S)=  5/13 SWL H/P/D(F/S/D)=  3/ 90/13

CAPE LOOKOUT     0100            60     320/  3/  4 1011.1R
ONSLOW BAY 41036 NOT AVBL
ONSLOW BAY 41064 0108            62 62  260/ 10/ 12 1011.6R
ONSLOW BAY 41159 0143               62                N/A
WVE H/P(F/S)=  4/11 SWL H/P/D(F/S/D)=  2/100/11

MASNBO INL 41110 0159               53                N/A
WVE H/P(F/S)=  2/11 SWL H/P/D(F/S/D)=  2/110/11

WILM HARBR 41108 0156               56                N/A
WVE H/P(F/S)=  3/ 4 SWL H/P/D(F/S/D)=  2/140/12

27SE WRITB 41037 0108            67 71  230/ 12/ 17 1011.3R
FRYING PAN 41013 0120            69 71  240/ 16/ 17 1012.0
SUNST NRSH 41024 0108            57 55  200/  2/  4 1011.8R
CAPRS NRSH 41029 0108            57 56  240/  4/  8 1012.6R
EDISTO     41004 0050            69 69  220/ 10/ 12 1012.2
WVE H/P(F/S)=  3/12 SWL H/P/D(F/S/D)=  2/ 90/12



..........OFFSHORE BUOYS BEYOND 100 NM OFFSHORE...........
.....IN A TRIANGLE---HAT TO BERMUDA TO BAHAMAS TO HAT.....


STATION/POSITION TIME  SKY/WX   TEMP    WIND        PRES    VSBY
                                AIR SEA DIR/SP/G
                 (UTC)          (F)     (DEG/KT/KT) (MB)    (MI)
150E HAT   41001 NOT AVBL
W BERMUDA  41048 0050            67 70  290/ 10/ 14 1014.8
WVE H/P(F/S)=  7/11 SWL H/P/D(F/S/D)=  7/ 50/11

ATLANTIC S 41049 0050            70 74  330/ 10/ 14 1014.6
WVE H/P(F/S)=  9/ 9 SWL H/P/D(F/S/D)=  8/320/ 9

E BAHAMAS  41046 0120            74 78   50/  2/  6 1017.5
NE BAHAMAS 41047 0120            72 75  270/  4/  6 1016.6
120E CANVRL41010 NOT AVBL

END



USA.gov is the U.S. government's official web portal to all federal, state and local government web resources and services.